Location: Madrid
(40.4000°N, 3.6830°W)
Time: 16:21:41
(UTC+01:00)

ISS - Pass Details

Date: 23 February 2018
Orbit: 403 x 406 km, 51.6° (Epoch: 26 February)

Event Time Altitude Azimuth Distance (km) Brightness Sun altitude
Rises 07:19:29 0° 182° (S) 2,305 0.1 -8.0°
Reaches altitude 10° 07:23:17 10° 136° (SE) 1,452 -0.2 -7.3°
Maximum altitude 07:23:43 10° 128° (SE) 1,441 0.0 -7.2°
Drops below altitude 10° 07:24:10 10° 120° (ESE) 1,454 0.2 -7.1°
Sets 07:27:59 0° 75° (ENE) 2,319 1.5 -6.4°
